F6CNB-13 Weather Reports


time (UTC)temp
C
wind
direction
speed
KPH
gust
KPH
rain 1hr
cm
rain 24hr
cm
rain mn
cm
humidity
%
barometer
mb
20260505034554 12 339 3.2 14.5 0.00 0.15 0.00 94 1009.2
20260505033054 12 360 3.2 6.4 0.00 0.15 0.00 94 1009.1
20260505031556 12 0 0.0 6.4 0.00 0.15 0.00 94 1009.4
20260505030051 12 0 1.6 8.0 0.00 0.15 0.00 94 1009.6
20260505024601 12 328 0.0 6.4 0.00 0.15 0.00 94 1009.9
20260505023054 12 324 0.0 6.4 0.00 0.15 0.00 94 1010.1
20260505021551 12 0 0.0 4.8 0.00 0.15 0.00 94 1010.0
20260505020051 12 317 1.6 9.7 0.00 0.15 0.00 94 1009.6
20260505014551 12 315 1.6 6.4 0.00 0.15 0.00 94 1009.8
20260505013116 12 0 0.0 8.0 0.00 0.15 0.00 94 1010.1
20260505011558 12 340 1.6 6.4 0.00 0.15 0.00 94 1010.3
20260505004557 12 344 0.0 4.8 0.00 0.15 0.00 94 1010.4
20260505003050 13 302 0.0 3.2 0.00 0.15 0.00 94 1010.3
20260505001552 13 326 0.0 3.2 0.00 0.15 0.00 94 1010.4
20260505000108 13 48 0.0 3.2 0.00 0.15 0.00 94 1010.5
20260504234554 13 304 3.2 6.4 0.00 0.15 0.00 94 1010.5
20260504233106 12 0 1.6 12.9 0.00 0.15 0.00 94 1010.3
20260504231557 13 360 0.0 4.8 0.00 0.15 0.00 94 1010.3
20260504230106 13 0 0.0 1.6 0.00 0.15 0.00 94 1010.7
20260504224554 13 0 0.0 3.2 0.00 0.15 0.00 94 1011.0
20260504223058 13 300 0.0 1.6 0.00 0.15 0.00 94 1011.2
20260504221552 13 0 0.0 4.8 0.00 0.15 0.00 94 1011.3
20260504220050 13 0 0.0 3.2 0.00 0.15 0.00 94 1011.4
20260504214606 13 0 0.0 1.6 0.00 0.15 0.15 93 1011.6
20260504213059 13 335 0.0 6.4 0.00 0.15 0.15 93 1011.7
20260504211556 13 0 0.0 1.6 0.00 0.15 0.15 93 1011.7
20260504210051 13 0 0.0 0.0 0.00 0.15 0.15 93 1011.8
20260504204553 13 0 0.0 1.6 0.00 0.15 0.15 93 1011.7
20260504203103 13 0 0.0 1.6 0.00 0.15 0.15 93 1011.7
20260504201613 13 0 0.0 1.6 0.00 0.15 0.15 93 1011.7
20260504200055 13 0 0.0 1.6 0.00 0.15 0.15 93 1011.8
20260504194553 13 0 0.0 1.6 0.00 0.15 0.15 93 1011.9
20260504193052 13 0 0.0 3.2 0.00 0.15 0.15 93 1011.9
20260504191559 13 0 0.0 4.8 0.00 0.15 0.15 92 1011.8
20260504190110 13 0 0.0 1.6 0.00 0.15 0.15 92 1011.7
20260504184641 13 0 0.0 0.0 0.00 0.18 0.15 92 1011.7
20260504183053 13 0 0.0 4.8 0.00 0.18 0.15 92 1011.6
20260504181559 13 0 0.0 1.6 0.00 0.18 0.15 91 1011.5
20260504180055 13 0 0.0 3.2 0.00 0.18 0.15 91 1011.5
20260504174556 13 0 0.0 0.0 0.00 0.18 0.15 90 1011.5
20260504173056 14 0 0.0 0.0 0.00 0.18 0.15 90 1011.4
20260504171600 14 0 0.0 0.0 0.00 0.18 0.15 90 1011.4
20260504160104 13 0 0.0 1.6 0.08 0.18 0.13 88 1011.6
20260504140107 15 0 0.0 4.8 0.00 0.08 0.03 88 1012.2
20260504120108 14 340 1.6 6.4 0.00 0.05 0.00 87 1012.6
20260504081550 13 0 0.0 0.0 0.00 0.08 0.00 92 1013.0
20260504080104 13 0 0.0 0.0 0.00 0.08 0.00 92 1013.0
20260504044551 12 0 0.0 3.2 0.00 0.36 0.00 93 1011.9
20260504043051 12 0 0.0 1.6 0.00 0.36 0.00 93 1011.9
20260504041549 12 0 0.0 1.6 0.00 0.36 0.00 93 1011.8
20260504040052 12 0 0.0 3.2 0.00 0.36 0.00 93 1012.0